[[{"header":{"parameterUnit":"m.s-1","parameterCategory":1,"la1":30.2991,"la2":30.254,"lo1":-89.0895,"lo2":-89.0444,"dy":0.0017,"dx":0.0017,"nx":28,"ny":28,"refTime":"2025-03-27T21:00:00:Z","depth":0,"parameterNumber":2,"parameterNumberName":"U-component_of_WINDS"},"data":[0,0,0,0,0,0,0,0,0,0,0,0,0,0,0,0,0,0,0,0,0,0,0,0,0,0,0,0,0,0,0,0,0,0,0,0,0,0,0,0,0,0,0,0,0,0,0,0,0,0,0,0,0,0,0,0,0,0,-5.1542,-5.1542,0,-5.1609,-5.161,-5.1611,-5.152,-5.1517,-5.1514,-5.1511,-5.1577,-5.1582,-5.1586,0,0,0,0,0,0,0,0,0,0,0,0,0,-5.1332,-5.1337,-5.1542,-5.1542,-5.1543,-5.1609,-5.161,-5.1611,-5.1521,-5.1517,-5.1513,-5.1509,-5.1575,-5.1581,-5.1587,0,0,0,0,0,0,0,0,0,0,0,0,0,-5.1414,-5.1338,-5.1541,-5.1506,-5.1504,-5.1609,-5.161,-5.1611,-5.1522,-5.1517,-5.1512,-5.1507,-5.1573,-5.158,-5.1588,-5.1729,0,0,-5.1609,-5.1613,0,0,0,0,0,0,0,0,-5.1409,-5.1422,-5.1511,-5.1509,-5.1506,-5.1551,-5.156,-5.1651,-5.1523,-5.1515,-5.1511,-5.1505,-5.1572,-5.1579,-5.1602,-5.1732,-5.1735,-5.161,-5.1614,-5.1618,-5.162,0,0,0,0,0,0,0,-5.1404,-5.1418,-5.1568,-5.1512,-5.1509,-5.1486,-5.1493,-5.1577,-5.157,-5.1515,-5.1509,-5.1518,-5.157,-5.1596,-5.1603,-5.1736,-5.161,-5.1616,-5.1621,-5.1624,-5.1985,-5.199,0,0,0,0,0,0,-5.1403,-5.1414,-5.1566,-5.157,-5.1445,-5.1494,-5.1501,-5.1542,-5.1569,-5.1568,-5.1522,-5.1514,-5.1586,-5.1595,-5.1605,-5.1772,-5.1617,-5.1624,-5.1628,-5.198,-5.1986,-5.1992,0,0,0,0,0,0,-5.1398,-5.1417,-5.1563,-5.149,-5.1507,-5.1503,-5.1549,-5.1546,-5.1571,-5.1574,-5.1572,-5.155,-5.1582,-5.1595,-5.1699,-5.1773,-5.1627,-5.1634,-5.1973,-5.1982,-5.1989,-5.2107,0,0,0,0,0,0,-5.1393,-5.1416,-5.147,-5.1492,-5.1512,-5.1657,-5.1554,-5.1551,-5.1584,-5.1574,-5.16,-5.1599,-5.158,-5.1689,-5.1706,-5.178,-5.164,-5.1967,-5.1977,-5.1986,-5.2096,-5.2118,-5.2136,0,0,0,0,0,-5.1386,-5.15,-5.1473,-5.1492,-5.1579,-5.1661,-5.1672,-5.1648,-5.1591,-5.1644,-5.1647,-5.1598,-5.1763,-5.17,-5.1719,-5.1796,-5.1962,-5.1974,-5.1986,-5.2087,-5.2113,-5.2136,0,0,0,0,0,0,-5.1485,-5.1502,-5.1473,-5.1598,-5.1629,-5.1646,-5.1713,-5.1677,-5.1724,-5.1712,-5.168,-5.1686,-5.1797,-5.1807,-5.1737,-5.1934,-5.1853,-5.1869,-5.1923,-5.1948,-5.1968,-5.1962,-5.1646,0,0,0,0,0,-5.1522,-5.1588,-5.1599,-5.1709,-5.1726,-5.1718,-5.1752,-5.1731,-5.1762,-5.1774,-5.1783,-5.1814,-5.1872,-5.1911,-5.1965,-5.2098,-5.2102,-5.216,-5.218,-5.2197,-5.221,-5.228,-5.2306,-5.2031,-5.2031,-5.2031,0,0,-5.1598,-5.1616,-5.1659,-5.1729,-5.1751,-5.1819,-5.1729,-5.1805,-5.1854,-5.1785,-5.1883,-5.1892,-5.1924,-5.2043,-5.2096,-5.2055,-5.2288,-5.2212,-5.2225,-5.223,-5.2295,-5.2321,-5.2345,-5.2039,-5.2038,-5.2036,0,0,-5.1771,-5.1792,-5.1885,-5.1909,-5.1943,-5.1937,-5.196,-5.1983,-5.1986,-5.2085,-5.2034,-5.2093,-5.2194,-5.2219,-5.2245,-5.2429,-5.2386,-5.2448,-5.2551,-5.262,-5.2642,-5.2661,-5.2725,-5.2748,-5.2462,-5.2463,-5.2463,0,-5.186,-5.1962,-5.1937,-5.2017,-5.2048,-5.1991,-5.2084,-5.2108,-5.2158,-5.2181,-5.2135,-5.2262,-5.2279,-5.2403,-5.2448,-5.2472,-5.2495,-5.2443,-5.2641,-5.266,-5.2677,-5.2737,-5.2762,-5.247,-5.2469,-5.2468,-5.2467,0,-5.207,-5.2141,-5.2212,-5.2263,-5.2303,-5.2389,-5.2376,-5.242,-5.2397,-5.2395,-5.2497,-5.2516,-5.2573,-5.2601,-5.2578,-5.2722,-5.2695,-5.2646,-5.2562,-5.2711,-5.2767,-5.279,-5.248,-5.2477,-5.2475,-5.2473,0,0,-5.2304,-5.2342,-5.2368,-5.239,-5.2425,-5.2479,-5.2563,-5.2619,-5.2657,-5.2694,-5.2762,-5.2851,-5.2806,-5.2835,-5.2815,-5.2876,-5.3019,-5.2819,-5.2819,-5.2854,-5.3176,-5.3211,-5.3239,-5.2992,-5.2997,-5.3,-5.3173,0,-5.2475,-5.2621,-5.2601,-5.274,-5.2805,-5.2753,-5.2825,-5.2854,-5.2856,-5.2911,-5.2912,-5.2974,-5.2911,-5.2929,-5.2987,-5.299,-5.3083,-5.2977,-5.3053,-5.3057,-5.3044,-5.3268,-5.3305,-5.3467,-5.3195,-5.3199,-5.3202,0,-5.2693,-5.274,-5.2886,-5.2911,-5.2937,-5.3003,-5.3053,-5.3107,-5.3139,-5.3136,-5.317,-5.314,-5.3222,-5.314,-5.3254,-5.3182,-5.3213,-5.3219,-5.3225,-5.3228,-5.3136,-5.3276,-5.3519,-5.3542,-5.3236,-5.3234,-5.3231,0,-5.2847,-5.2946,-5.3046,-5.3067,-5.3099,-5.3147,-5.3162,-5.3189,-5.3225,-5.3269,-5.3291,-5.3345,-5.3373,-5.3415,-5.34,-5.3342,-5.3516,-5.3432,-5.3514,-5.3514,-5.355,-5.3547,-5.3799,-5.3575,-5.3574,-5.3574,-5.3573,0,-5.3039,-5.3129,-5.3116,-5.3177,-5.3277,-5.3254,-5.3354,-5.3363,-5.3388,-5.3449,-5.3408,-5.3466,-5.3443,-5.35,-5.3488,-5.3583,-5.3597,-5.3595,-5.3591,-5.3598,-5.3598,-5.3615,-5.3602,-5.358,-5.3579,-5.3578,-5.3577,0,-5.3226,-5.322,-5.3325,-5.3348,-5.3356,-5.3429,-5.3448,-5.3505,-5.3504,-5.3582,-5.3599,-5.3598,-5.3663,-5.3653,-5.3724,-5.3716,-5.3834,-5.3817,-5.3824,-5.3818,-5.39,-5.3891,-5.4169,-5.4203,-5.396,-5.3962,-5.3964,0,-5.3347,-5.3415,-5.3446,-5.3485,-5.3504,-5.3567,-5.3603,-5.3585,-5.3624,-5.3666,-5.3718,-5.378,-5.3827,-5.3933,-5.3938,-5.3993,-5.3975,-5.4068,-5.3982,-5.3987,-5.3973,-5.3968,-5.3974,-5.4084,-5.4087,-5.4089,-5.4091,0,-5.3561,-5.3556,-5.361,-5.3665,-5.371,-5.3751,-5.3788,-5.3822,-5.3807,-5.3853,-5.392,-5.3957,-5.4031,-5.4092,-5.4143,-5.4158,-5.4122,-5.4119,-5.414,-5.4146,-5.4146,-5.4145,-5.3867,-5.4112,-5.411,-5.4108,-5.4107,-5.4106,-5.3717,-5.3776,-5.3807,-5.3869,-5.3896,-5.3932,-5.3986,-5.3994,-5.4049,-5.4108,-5.4094,-5.4169,-5.4199,-5.4265,-5.4286,-5.4343,-5.4308,-5.434,-5.4347,-5.4355,-5.4363,-5.414,-5.4353,-5.4352,-5.4352,-5.4351,-5.4351,0,-5.3928,-5.3946,-5.4004,-5.4058,-5.4107,-5.4071,-5.4111,-5.4153,-5.422,-5.4252,-5.4301,-5.4377,-5.4437,-5.4447,-5.4504,-5.4548,-5.4532,-5.4563,-5.4558,-5.4562,-5.4392,-5.4367,-5.4574,-5.4574,-5.4574,-5.4574,-5.4574,-5.4574,-5.4043,-5.414,-5.4138,-5.4248,-5.4264,-5.4338,-5.4364,-5.4397,-5.4422,-5.451,-5.4559,-5.4567,-5.459,-5.4648,-5.4701,-5.4702,-5.4724,-5.476,-5.4755,-5.4596,-5.4574,-5.4552,-5.4528,-5.4766,-5.4766,-5.4919,-5.492,-5.4922]},{"header":{"parameterUnit":"m.s-1","parameterCategory":1,"la1":30.2991,"la2":30.254,"lo1":-89.0895,"lo2":-89.0444,"dy":0.0017,"dx":0.0017,"nx":28,"ny":28,"refTime":"2025-03-27T21:00:00:Z","depth":0,"parameterNumber":3,"parameterNumberName":"V-component_of_WINDS"},"data":[0,0,0,0,0,0,0,0,0,0,0,0,0,0,0,0,0,0,0,0,0,0,0,0,0,0,0,0,0,0,0,0,0,0,0,0,0,0,0,0,0,0,0,0,0,0,0,0,0,0,0,0,0,0,0,0,0,0,2.0969,2.0969,0,2.1025,2.1026,2.1026,2.1015,2.1014,2.1013,2.1012,2.1067,2.1069,2.1071,0,0,0,0,0,0,0,0,0,0,0,0,0,2.085,2.0852,2.0969,2.0969,2.097,2.1025,2.1026,2.1026,2.1016,2.1014,2.1013,2.1012,2.1066,2.1069,2.1072,0,0,0,0,0,0,0,0,0,0,0,0,0,2.0904,2.0853,2.0969,2.0971,2.0972,2.1025,2.1026,2.1027,2.1016,2.1014,2.1013,2.1011,2.1065,2.1069,2.1072,2.1124,0,0,2.1083,2.1085,0,0,0,0,0,0,0,0,2.0901,2.0908,2.097,2.0971,2.0972,2.1012,2.1004,2.1059,2.1016,2.0999,2.1012,2.1011,2.1049,2.1054,2.1068,2.1127,2.1129,2.1083,2.1085,2.1087,2.1088,0,0,0,0,0,0,0,2.0897,2.0905,2.0991,2.0971,2.0972,2.0969,2.0975,2.1014,2.1032,2.1001,2.1,2.1007,2.105,2.1065,2.1069,2.113,2.1083,2.1086,2.1089,2.109,2.1237,2.1239,0,0,0,0,0,0,2.0893,2.0902,2.0989,2.0993,2.0932,2.0973,2.0979,2.1001,2.1032,2.1035,2.1008,2.1006,2.1059,2.1065,2.1071,2.1136,2.1087,2.109,2.1092,2.1236,2.1238,2.124,0,0,0,0,0,0,2.089,2.09,2.0987,2.0947,2.0958,2.0976,2.1,2.1002,2.1017,2.1037,2.104,2.102,2.1058,2.1066,2.1112,2.1138,2.1092,2.1095,2.1233,2.1236,2.1239,2.1266,0,0,0,0,0,0,2.0887,2.09,2.092,2.0948,2.096,2.1027,2.1002,2.1005,2.1024,2.1022,2.1049,2.1052,2.1058,2.1107,2.1116,2.1142,2.1098,2.1231,2.1235,2.1238,2.1263,2.1269,2.1274,0,0,0,0,0,2.0883,2.0924,2.0921,2.0931,2.0986,2.1029,2.1036,2.1042,2.1026,2.1047,2.106,2.1052,2.1134,2.1112,2.1121,2.1149,2.123,2.1234,2.1238,2.126,2.1268,2.1274,0,0,0,0,0,0,2.0896,2.0927,2.0924,2.0976,2.1,2.1027,2.1053,2.1049,2.1077,2.1074,2.108,2.1086,2.1133,2.1146,2.112,2.1203,2.1179,2.1185,2.1193,2.12,2.1206,2.1202,2.1101,0,0,0,0,0,2.0906,2.0938,2.0963,2.1007,2.1019,2.1034,2.1053,2.1056,2.108,2.109,2.1106,2.113,2.1161,2.1181,2.1211,2.1264,2.1271,2.1288,2.1294,2.1299,2.1304,2.1336,2.1344,2.1253,2.1253,2.1253,0,0,2.0924,2.0946,2.0966,2.101,2.1029,2.1063,2.1042,2.1078,2.1104,2.1095,2.114,2.1153,2.118,2.1231,2.1254,2.1242,2.1331,2.1304,2.1308,2.1311,2.1341,2.1349,2.1357,2.1255,2.1255,2.1254,0,0,2.0977,2.0996,2.1035,2.1055,2.1085,2.1095,2.1105,2.1133,2.1142,2.1187,2.1182,2.1212,2.1265,2.1285,2.1302,2.1365,2.1359,2.1375,2.1405,2.1436,2.1443,2.145,2.1473,2.1482,2.138,2.138,2.138,0,2.0996,2.1048,2.1055,2.1093,2.1113,2.1109,2.1149,2.1168,2.1205,2.1219,2.1206,2.1275,2.1292,2.1349,2.1365,2.1378,2.1389,2.1371,2.1442,2.1448,2.1454,2.1477,2.1486,2.1382,2.1381,2.1381,2.1381,0,2.1071,2.1107,2.1135,2.1174,2.1197,2.1236,2.1249,2.1272,2.1273,2.1285,2.1333,2.1354,2.1389,2.1402,2.1403,2.1459,2.1452,2.144,2.1417,2.1465,2.1486,2.1495,2.1384,2.1383,2.1383,2.1382,0,0,2.1132,2.1177,2.1187,2.1205,2.1239,2.1267,2.1306,2.1342,2.1362,2.1388,2.1421,2.1468,2.1459,2.1478,2.1481,2.1508,2.1559,2.1493,2.1494,2.1506,2.1624,2.1633,2.1643,2.1555,2.1557,2.1558,2.1622,0,2.1188,2.1259,2.1268,2.133,2.1364,2.1362,2.1396,2.142,2.1433,2.1463,2.1476,2.151,2.1494,2.1506,2.1532,2.1547,2.1582,2.1542,2.1586,2.1588,2.158,2.1654,2.1663,2.1723,2.1631,2.1632,2.1633,0,2.1263,2.1294,2.1361,2.1392,2.1407,2.1437,2.1473,2.1502,2.153,2.1537,2.156,2.1561,2.1601,2.1577,2.1633,2.1606,2.1624,2.1634,2.1637,2.1641,2.1614,2.1662,2.1742,2.1751,2.1646,2.1645,2.1644,0,2.1303,2.1361,2.1409,2.1425,2.1462,2.1484,2.1501,2.1527,2.1549,2.158,2.1594,2.1628,2.1647,2.1673,2.1683,2.1664,2.174,2.1715,2.1747,2.1747,2.1763,2.1762,2.1849,2.1774,2.1774,2.1774,2.1773,0,2.1366,2.1406,2.1428,2.1457,2.1503,2.1514,2.1559,2.1574,2.1599,2.1631,2.163,2.1661,2.1672,2.1704,2.1712,2.1758,2.1766,2.1774,2.1775,2.1774,2.1774,2.1787,2.1783,2.1776,2.1775,2.1775,2.1775,0,2.1418,2.1433,2.1486,2.1518,2.1527,2.156,2.1588,2.1616,2.1629,2.167,2.1681,2.17,2.1739,2.1751,2.1797,2.1802,2.1857,2.1854,2.1848,2.1849,2.188,2.1878,2.1979,2.1993,2.1908,2.1909,2.191,0,2.1457,2.1489,2.1525,2.1548,2.1566,2.1602,2.1625,2.1637,2.1661,2.1697,2.1722,2.176,2.1791,2.1852,2.187,2.1906,2.1905,2.1938,2.191,2.1909,2.1907,2.1905,2.1909,2.1943,2.1944,2.1945,2.1945,0,2.1525,2.1532,2.1566,2.1604,2.1633,2.1662,2.1691,2.1709,2.1725,2.1752,2.1793,2.1817,2.1865,2.1904,2.194,2.1957,2.1954,2.1954,2.1964,2.1963,2.1959,2.1963,2.1864,2.1952,2.1951,2.1951,2.195,2.195,2.1573,2.1602,2.1634,2.1672,2.1696,2.1723,2.1753,2.1771,2.1805,2.1846,2.185,2.1894,2.1923,2.1972,2.1991,2.2025,2.2016,2.2029,2.2033,2.2036,2.2039,2.1953,2.2031,2.2031,2.2031,2.2031,2.2031,0,2.1643,2.1664,2.1699,2.1741,2.1772,2.1768,2.1801,2.1826,2.1865,2.1893,2.1925,2.1972,2.201,2.2032,2.207,2.2094,2.2094,2.2103,2.2102,2.2106,2.2045,2.2033,2.2103,2.2103,2.2103,2.2103,2.2103,2.2103,2.1683,2.1733,2.1744,2.1806,2.1826,2.1871,2.189,2.1915,2.1938,2.1992,2.2024,2.2039,2.2065,2.2105,2.214,2.2145,2.216,2.2171,2.2176,2.2118,2.211,2.2103,2.2093,2.2174,2.2174,2.2235,2.2235,2.2236]}]]